CW2401 Weather Reports


Display with metric or nautical units.
time (UTC)temp
F
wind
direction
speed
MPH
gust
MPH
rain 1hr
in
rain 24hr
in
rain mn
in
humidity
%
barometer
mb
20260831180237 87 72 1.0 2.0 0.00 0.00 0.00 63 1020.7
20260831180036 87 72 1.0 2.0 0.00 0.00 0.00 65 1020.7
20260831175837 87 72 1.0 2.0 0.00 0.00 0.00 64 1020.7
20260831175635 87 72 1.0 2.0 0.00 0.00 0.00 64 1020.7
20260831175031 87 73 0.0 2.0 0.00 0.00 0.00 64 1020.8
20260831174830 87 72 0.0 1.0 0.00 0.00 0.00 65 1020.7
20260831174634 87 71 0.0 1.0 0.00 0.00 0.00 68 1020.7
20260831174427 87 71 0.0 1.0 0.00 0.00 0.00 68 1020.7
20260831174226 87 71 0.0 1.0 0.00 0.00 0.00 67 1020.7
20260831174023 87 71 0.0 2.0 0.00 0.00 0.00 69 1020.6
20260831173822 87 71 0.0 2.0 0.00 0.00 0.00 69 1020.7
20260831173623 87 71 0.0 2.0 0.00 0.00 0.00 68 1020.7
20260831173021 87 71 0.0 2.0 0.00 0.00 0.00 66 1020.8
20260831172818 87 71 0.0 2.0 0.00 0.00 0.00 66 1020.8
20260831172214 87 63 1.0 2.0 0.00 0.00 0.00 64 1020.8
20260831172012 87 64 1.0 2.0 0.00 0.00 0.00 67 1020.8
20260831171812 86 63 1.0 2.0 0.00 0.00 0.00 66 1020.9
20260831171612 86 63 1.0 2.0 0.00 0.00 0.00 67 1020.9
20260831171409 86 63 1.0 2.0 0.00 0.00 0.00 69 1020.9
20260831171006 86 62 1.0 2.0 0.00 0.00 0.00 68 1020.9
20260831170805 86 62 1.0 2.0 0.00 0.00 0.00 68 1021.0
20260831170612 86 62 0.0 2.0 0.00 0.00 0.00 68 1021.0
20260831170404 86 62 1.0 2.0 0.00 0.00 0.00 66 1021.0
20260831170203 86 62 1.0 3.0 0.00 0.00 0.00 66 1021.0
20260831170006 86 62 1.0 3.0 0.00 0.00 0.00 68 1021.1
20260831165803 86 62 1.0 3.0 0.00 0.00 0.00 69 1021.1
20260831165605 86 59 1.0 3.0 0.00 0.00 0.00 69 1021.1
20260831165405 86 59 1.0 3.0 0.00 0.00 0.00 69 1021.1
20260831165002 86 89 1.0 2.0 0.00 0.00 0.00 67 1021.1
20260831164802 86 89 1.0 3.0 0.00 0.00 0.00 66 1021.1
20260831164401 85 89 1.0 3.0 0.00 0.00 0.00 65 1021.1
20260831164159 85 88 1.0 3.0 0.00 0.00 0.00 66 1021.2
20260831164001 85 88 0.0 3.0 0.00 0.00 0.00 67 1021.1
20260831163759 85 56 0.0 2.0 0.00 0.00 0.00 71 1021.1
20260831163555 85 43 1.0 2.0 0.00 0.00 0.00 70 1021.1
20260831163355 85 43 1.0 3.0 0.00 0.00 0.00 68 1021.1
20260831163157 85 42 1.0 3.0 0.00 0.00 0.00 68 1021.1
20260831162800 85 42 1.0 3.0 0.00 0.00 0.00 69 1021.1
20260831162555 85 34 1.0 3.0 0.00 0.00 0.00 71 1021.2
20260831162354 85 30 1.0 3.0 0.00 0.00 0.00 70 1021.2
20260831162154 85 28 1.0 3.0 0.00 0.00 0.00 70 1021.2
20260831161952 85 28 1.0 3.0 0.00 0.00 0.00 70 1021.3
20260831161752 85 28 1.0 3.0 0.00 0.00 0.00 70 1021.3
20260831161551 85 28 1.0 3.0 0.00 0.00 0.00 69 1021.3
20260831161351 85 80 0.0 2.0 0.00 0.00 0.00 72 1021.3
20260831161149 85 80 0.0 2.0 0.00 0.00 0.00 73 1021.4
20260831160946 85 78 0.0 1.0 0.00 0.00 0.00 73 1021.4
20260831160745 85 78 0.0 1.0 0.00 0.00 0.00 72 1021.4
20260831160543 85 78 0.0 2.0 0.00 0.00 0.00 73 1021.4
20260831160344 85 78 0.0 3.0 0.00 0.00 0.00 74 1021.4
20260831160142 85 79 0.0 3.0 0.00 0.00 0.00 72 1021.4
20260831155943 85 78 0.0 3.0 0.00 0.00 0.00 72 1021.4
20260831155742 85 78 1.0 3.0 0.00 0.00 0.00 72 1021.4
20260831155541 85 78 0.0 3.0 0.00 0.00 0.00 73 1021.4
20260831155342 85 55 0.0 2.0 0.00 0.00 0.00 73 1021.4
20260831155143 84 55 0.0 2.0 0.00 0.00 0.00 74 1021.4
20260831154741 84 54 0.0 2.0 0.00 0.00 0.00 76 1021.6
20260831154541 84 54 0.0 2.0 0.00 0.00 0.00 76 1021.6
20260831154340 84 54 0.0 2.0 0.00 0.00 0.00 76 1021.5
20260831154142 84 77 0.0 2.0 0.00 0.00 0.00 76 1021.5
20260831153937 84 77 0.0 2.0 0.00 0.00 0.00 75 1021.5
20260831153736 84 77 1.0 2.0 0.00 0.00 0.00 77 1021.6
20260831153534 84 77 1.0 3.0 0.00 0.00 0.00 77 1021.6
20260831153332 84 77 1.0 3.0 0.00 0.00 0.00 76 1021.6
20260831153131 84 77 1.0 3.0 0.00 0.00 0.00 76 1021.6
20260831152932 84 77 1.0 3.0 0.00 0.00 0.00 76 1021.6
20260831152733 84 77 1.0 3.0 0.00 0.00 0.00 76 1021.6
20260831152533 84 52 1.0 3.0 0.00 0.00 0.00 75 1021.6
20260831152334 84 27 1.0 3.0 0.00 0.00 0.00 75 1021.6
20260831152132 84 27 1.0 3.0 0.00 0.00 0.00 75 1021.6
20260831151727 84 27 2.0 5.0 0.00 0.00 0.00 75 1021.7
20260831151525 84 27 1.0 5.0 0.00 0.00 0.00 75 1021.7
20260831151323 84 26 1.0 5.0 0.00 0.00 0.00 75 1021.7
20260831151128 84 22 0.0 5.0 0.00 0.00 0.00 77 1021.7
20260831150925 84 12 0.0 4.0 0.00 0.00 0.00 77 1021.7
20260831150725 83 5 0.0 1.0 0.00 0.00 0.00 77 1021.6
20260831150523 83 5 0.0 4.0 0.00 0.00 0.00 78 1021.7
20260831150322 83 5 0.0 4.0 0.00 0.00 0.00 78 1021.7
20260831145922 83 5 1.0 4.0 0.00 0.00 0.00 78 1021.7
20260831145719 83 5 1.0 4.0 0.00 0.00 0.00 77 1021.7
20260831145518 83 5 0.0 4.0 0.00 0.00 0.00 78 1021.7
20260831144913 83 304 0.0 1.0 0.00 0.00 0.00 78 1021.7
20260831144714 83 304 0.0 1.0 0.00 0.00 0.00 78 1021.7
20260831144514 83 304 1.0 3.0 0.00 0.00 0.00 78 1021.6
20260831144312 83 355 1.0 3.0 0.00 0.00 0.00 78 1021.6
20260831143911 83 0 1.0 3.0 0.00 0.00 0.00 77 1021.6
20260831143714 83 0 1.0 3.0 0.00 0.00 0.00 78 1021.7
20260831143511 83 0 1.0 3.0 0.00 0.00 0.00 78 1021.7
20260831143312 83 323 1.0 3.0 0.00 0.00 0.00 78 1021.6
20260831143112 82 355 0.0 3.0 0.00 0.00 0.00 78 1021.6
20260831142711 82 350 0.0 3.0 0.00 0.00 0.00 78 1021.5
20260831142512 82 348 0.0 3.0 0.00 0.00 0.00 79 1021.5
20260831142112 82 9 1.0 4.0 0.00 0.00 0.00 79 1021.5
20260831141911 82 0 1.0 4.0 0.00 0.00 0.00 79 1021.5
20260831141712 82 0 1.0 4.0 0.00 0.00 0.00 80 1021.4
20260831141512 81 0 1.0 4.0 0.00 0.00 0.00 81 1021.5
20260831141312 81 184 0.0 4.0 0.00 0.00 0.00 81 1021.4
20260831141111 81 5 0.0 2.0 0.00 0.00 0.00 82 1021.4
20260831140912 81 217 0.0 2.0 0.00 0.00 0.00 81 1021.4
20260831140713 81 243 0.0 2.0 0.00 0.00 0.00 82 1021.4
20260831140513 80 161 0.0 2.0 0.00 0.00 0.00 82 1021.4
20260831140313 80 160 0.0 2.0 0.00 0.00 0.00 82 1021.4
20260831140112 79 230 0.0 3.0 0.00 0.00 0.00 85 1021.3
20260831135712 78 350 0.0 3.0 0.00 0.00 0.00 86 1021.4
20260831135512 78 350 1.0 3.0 0.00 0.00 0.00 87 1021.4
20260831135312 78 285 1.0 3.0 0.00 0.00 0.00 88 1021.4
20260831135111 77 217 1.0 5.0 0.00 0.00 0.00 88 1021.3
20260831134912 77 229 1.0 5.0 0.00 0.00 0.00 90 1021.3
20260831134711 76 232 1.0 5.0 0.00 0.00 0.00 90 1021.2
20260831134512 76 12 1.0 5.0 0.00 0.00 0.00 91 1021.3
20260831134312 76 12 1.0 5.0 0.00 0.00 0.00 91 1021.3
20260831134113 76 10 1.0 5.0 0.00 0.00 0.00 92 1021.3
20260831133913 75 20 1.0 4.0 0.00 0.00 0.00 93 1021.3
20260831133712 75 336 1.0 4.0 0.00 0.00 0.00 95 1021.3
20260831133511 75 9 1.0 4.0 0.00 0.00 0.00 95 1021.4
20260831133312 74 0 1.0 4.0 0.00 0.00 0.00 96 1021.3
20260831133113 74 265 1.0 4.0 0.00 0.00 0.00 95 1021.4
20260831132912 74 53 0.0 2.0 0.00 0.00 0.00 96 1021.4
20260831132513 74 67 0.0 2.0 0.00 0.00 0.00 96 1021.3
20260831132312 73 67 0.0 2.0 0.00 0.00 0.00 96 1021.4
20260831132111 73 22 0.0 1.0 0.00 0.00 0.00 95 1021.4
20260831131912 73 22 0.0 1.0 0.00 0.00 0.00 95 1021.4
20260831131513 72 22 0.0 3.0 0.00 0.00 0.00 96 1021.4
20260831131314 72 22 0.0 3.0 0.00 0.00 0.00 95 1021.3
20260831131112 72 22 0.0 3.0 0.00 0.00 0.00 96 1021.3
20260831130911 72 22 0.0 3.0 0.00 0.00 0.00 96 1021.3
20260831130712 71 22 0.0 3.0 0.00 0.00 0.00 95 1021.2
20260831130513 71 22 0.0 1.0 0.00 0.00 0.00 95 1021.2
20260831130312 71 22 0.0 2.0 0.00 0.00 0.00 95 1021.2
20260831130112 71 22 0.0 2.0 0.00 0.00 0.00 95 1021.3
20260831125913 71 22 0.0 2.0 0.00 0.00 0.00 95 1021.3
20260831125713 71 22 0.0 2.0 0.00 0.00 0.00 95 1021.3
20260831125511 71 22 0.0 2.0 0.00 0.00 0.00 95 1021.3
20260831125311 71 22 0.0 0.0 0.00 0.00 0.00 95 1021.3
20260831124912 70 22 0.0 0.0 0.00 0.00 0.00 95 1021.3
20260831124711 70 22 0.0 0.0 0.00 0.00 0.00 95 1021.3
20260831124511 70 22 0.0 0.0 0.00 0.00 0.00 95 1021.4
20260831124311 70 22 0.0 0.0 0.00 0.00 0.00 95 1021.4
20260831124113 70 22 0.0 0.0 0.00 0.00 0.00 95 1021.4
20260831123713 69 22 0.0 0.0 0.00 0.00 0.00 95 1021.4
20260831123113 69 22 0.0 0.0 0.00 0.00 0.00 95 1021.4
20260831122912 69 22 0.0 0.0 0.00 0.00 0.00 95 1021.4
20260831122712 69 22 0.0 0.0 0.00 0.00 0.00 95 1021.5
20260831122513 69 22 0.0 0.0 0.00 0.00 0.00 95 1021.6
20260831122312 69 22 0.0 0.0 0.00 0.00 0.00 95 1021.5
20260831122114 69 22 0.0 0.0 0.00 0.00 0.00 95 1021.5
20260831121913 69 22 0.0 0.0 0.00 0.00 0.00 95 1021.4
20260831121712 69 22 0.0 0.0 0.00 0.00 0.00 95 1021.4
20260831121511 69 22 0.0 0.0 0.00 0.00 0.00 95 1021.4
20260831121312 69 22 0.0 0.0 0.00 0.00 0.00 95 1021.3
20260831120908 68 22 0.0 0.0 0.00 0.00 0.00 95 1021.3
20260831120707 68 22 0.0 0.0 0.00 0.00 0.00 95 1021.4
20260831120505 68 22 0.0 0.0 0.00 0.00 0.00 95 1021.4
20260831120305 68 22 0.0 0.0 0.00 0.00 0.00 94 1021.4
20260831120103 68 22 0.0 0.0 0.00 0.00 0.00 94 1021.4
20260831115902 68 22 0.0 0.0 0.00 0.00 0.00 94 1021.4
20260831115501 68 22 0.0 0.0 0.00 0.00 0.00 94 1021.5
20260831115300 68 22 0.0 0.0 0.00 0.00 0.00 94 1021.5
20260831115059 68 22 0.0 0.0 0.00 0.00 0.00 94 1021.5
20260831114900 68 22 0.0 0.0 0.00 0.00 0.00 94 1021.5
20260831114700 68 22 0.0 0.0 0.00 0.00 0.00 94 1021.4
20260831114459 68 22 0.0 0.0 0.00 0.00 0.00 94 1021.4
20260831114258 68 22 0.0 0.0 0.00 0.00 0.00 94 1021.4
20260831114057 68 22 0.0 0.0 0.00 0.00 0.00 94 1021.4
20260831113857 68 22 0.0 0.0 0.00 0.00 0.00 94 1021.4
20260831113657 68 22 0.0 0.0 0.00 0.00 0.00 94 1021.5
20260831113457 68 22 0.0 0.0 0.00 0.00 0.00 94 1021.4
20260831113255 68 22 0.0 0.0 0.00 0.00 0.00 94 1021.4
20260831113055 67 22 0.0 1.0 0.00 0.00 0.00 94 1021.4
20260831112857 67 22 0.0 1.0 0.00 0.00 0.00 94 1021.4
20260831112657 67 22 0.0 1.0 0.00 0.00 0.00 94 1021.4
20260831112453 67 22 0.0 1.0 0.00 0.00 0.00 94 1021.4
20260831112252 67 22 0.0 1.0 0.00 0.00 0.00 94 1021.3
20260831112056 67 22 0.0 0.0 0.00 0.00 0.00 93 1021.3
20260831111851 67 22 0.0 0.0 0.00 0.00 0.00 93 1021.3
20260831111247 67 22 0.0 0.0 0.00 0.00 0.00 93 1021.3
20260831110848 68 22 0.0 0.0 0.00 0.00 0.00 93 1021.2
20260831110647 68 22 0.0 0.0 0.00 0.00 0.00 94 1021.2
20260831110446 68 22 0.0 0.0 0.00 0.00 0.00 94 1021.2
20260831110248 68 22 0.0 0.0 0.00 0.00 0.00 93 1021.3
20260831110043 68 22 0.0 0.0 0.00 0.00 0.00 93 1021.2
20260831105841 68 22 0.0 0.0 0.00 0.00 0.00 93 1021.3
20260831105640 68 22 0.0 0.0 0.00 0.00 0.00 94 1021.3
20260831105440 68 22 0.0 1.0 0.00 0.00 0.00 94 1021.2
20260831105238 68 22 0.0 1.0 0.00 0.00 0.00 94 1021.2
20260831104836 68 22 0.0 1.0 0.00 0.00 0.00 94 1021.2
20260831103830 67 22 0.0 0.0 0.00 0.00 0.00 94 1021.2
20260831103424 67 22 0.0 0.0 0.00 0.00 0.00 93 1021.0
20260831103227 67 22 0.0 0.0 0.00 0.00 0.00 93 1021.0
20260831103021 67 22 0.0 0.0 0.00 0.00 0.00 93 1021.0
20260831102819 67 22 0.0 0.0 0.00 0.00 0.00 93 1021.0
20260831102620 67 22 0.0 0.0 0.00 0.00 0.00 93 1021.0
20260831102417 67 22 0.0 0.0 0.00 0.00 0.00 93 1021.0
20260831102213 67 22 0.0 0.0 0.00 0.00 0.00 93 1021.0
20260831102015 67 22 0.0 0.0 0.00 0.00 0.00 93 1021.0
20260831101411 68 22 0.0 0.0 0.00 0.00 0.00 93 1021.0
20260831101207 68 22 0.0 0.0 0.00 0.00 0.00 93 1021.0
20260831101007 68 22 0.0 0.0 0.00 0.00 0.00 93 1021.0
20260831100806 68 22 0.0 0.0 0.00 0.00 0.00 93 1021.0
20260831100604 68 22 0.0 0.0 0.00 0.00 0.00 93 1021.0
20260831100403 68 22 0.0 0.0 0.00 0.00 0.00 93 1021.1
20260831100204 68 22 0.0 0.0 0.00 0.00 0.00 93 1021.1
20260831095801 68 22 0.0 0.0 0.00 0.00 0.00 93 1021.1
20260831095602 68 22 0.0 0.0 0.00 0.00 0.00 93 1021.0
20260831095359 68 22 0.0 0.0 0.00 0.00 0.00 93 1021.1
20260831095158 68 22 0.0 0.0 0.00 0.00 0.00 93 1021.1
20260831094957 68 22 0.0 0.0 0.00 0.00 0.00 93 1021.1
20260831094759 68 22 0.0 0.0 0.00 0.00 0.00 93 1021.0
20260831094558 68 22 0.0 0.0 0.00 0.00 0.00 93 1021.0
20260831094358 68 22 0.0 0.0 0.00 0.00 0.00 93 1021.0
20260831094156 68 22 0.0 0.0 0.00 0.00 0.00 93 1020.9
20260831093752 68 22 0.0 0.0 0.00 0.00 0.00 93 1021.0
20260831093551 68 22 0.0 0.0 0.00 0.00 0.00 93 1021.0
20260831093352 68 22 0.0 0.0 0.00 0.00 0.00 93 1020.9
20260831093149 68 22 0.0 0.0 0.00 0.00 0.00 93 1021.0
20260831092947 68 22 0.0 0.0 0.00 0.00 0.00 93 1020.9
20260831092747 68 22 0.0 0.0 0.00 0.00 0.00 93 1020.9
20260831092544 68 22 0.0 0.0 0.00 0.00 0.00 93 1021.0
20260831092345 68 22 0.0 0.0 0.00 0.00 0.00 93 1020.9
20260831092141 68 22 0.0 0.0 0.00 0.00 0.00 93 1020.9
20260831091740 68 22 0.0 0.0 0.00 0.00 0.00 93 1020.9
20260831091537 68 22 0.0 0.0 0.00 0.00 0.00 93 1020.9
20260831091338 68 22 0.0 0.0 0.00 0.00 0.00 93 1020.8
20260831091138 68 22 0.0 0.0 0.00 0.00 0.00 93 1020.8
20260831090936 68 22 0.0 0.0 0.00 0.00 0.00 93 1020.8
20260831090736 68 22 0.0 0.0 0.00 0.00 0.00 93 1020.8
20260831090531 68 22 0.0 0.0 0.00 0.00 0.00 93 1020.8
20260831090329 68 22 0.0 0.0 0.00 0.00 0.00 93 1020.8
20260831090128 68 22 0.0 0.0 0.00 0.00 0.00 93 1020.7
20260831085929 68 22 0.0 0.0 0.00 0.00 0.00 93 1020.7
20260831085730 68 22 0.0 0.0 0.00 0.00 0.00 93 1020.7
20260831085527 68 22 0.0 0.0 0.00 0.00 0.00 93 1020.7
20260831085325 68 22 0.0 0.0 0.00 0.00 0.00 93 1020.7
20260831085125 68 22 0.0 0.0 0.00 0.00 0.00 93 1020.7
20260831084923 68 22 0.0 0.0 0.00 0.00 0.00 93 1020.7
20260831084721 68 22 0.0 0.0 0.00 0.00 0.00 93 1020.8
20260831084521 68 22 0.0 0.0 0.00 0.00 0.00 93 1020.7
20260831084120 68 22 0.0 0.0 0.00 0.00 0.00 93 1020.7
20260831083921 68 22 0.0 0.0 0.00 0.00 0.00 93 1020.8
20260831083718 68 22 0.0 0.0 0.00 0.00 0.00 93 1020.8
20260831083516 68 22 0.0 0.0 0.00 0.00 0.00 93 1020.8
20260831083315 68 22 0.0 0.0 0.00 0.00 0.00 93 1020.9
20260831083114 68 22 0.0 0.0 0.00 0.00 0.00 93 1020.9
20260831082912 68 22 0.0 0.0 0.00 0.00 0.00 93 1020.8
20260831082711 68 22 0.0 0.0 0.00 0.00 0.00 93 1020.9
20260831082511 68 22 0.0 0.0 0.00 0.00 0.00 93 1020.9
20260831082311 68 22 0.0 0.0 0.00 0.00 0.00 93 1020.9
20260831082108 68 22 0.0 0.0 0.00 0.00 0.00 93 1020.9
20260831081905 69 22 0.0 0.0 0.00 0.00 0.00 93 1020.9
20260831081705 69 22 0.0 0.0 0.00 0.00 0.00 93 1020.9
20260831081507 69 22 0.0 0.0 0.00 0.00 0.00 93 1021.0
20260831081305 69 22 0.0 0.0 0.00 0.00 0.00 93 1020.9
20260831080903 69 22 0.0 0.0 0.00 0.00 0.00 93 1020.9
20260831080703 69 22 0.0 0.0 0.00 0.00 0.00 93 1020.9
20260831080504 69 22 0.0 0.0 0.00 0.00 0.00 93 1020.9
20260831080302 69 22 0.0 0.0 0.00 0.00 0.00 93 1020.9
20260831075700 69 22 0.0 0.0 0.00 0.00 0.00 93 1021.0
20260831075502 69 22 0.0 0.0 0.00 0.00 0.00 93 1021.0
20260831075059 69 22 0.0 0.0 0.00 0.00 0.00 93 1021.0
20260831074901 69 22 0.0 0.0 0.00 0.00 0.00 93 1021.0
20260831074700 69 22 0.0 0.0 0.00 0.00 0.00 93 1021.1
20260831074301 69 22 0.0 0.0 0.00 0.00 0.00 93 1021.1
20260831074101 69 22 0.0 0.0 0.00 0.00 0.00 93 1021.0
20260831073859 69 22 0.0 0.0 0.00 0.00 0.00 93 1021.1
20260831073657 69 22 0.0 0.0 0.00 0.00 0.00 93 1021.0
20260831073456 69 22 0.0 0.0 0.00 0.00 0.00 93 1021.0
20260831073259 69 22 0.0 0.0 0.00 0.00 0.00 93 1021.0
20260831073056 69 22 0.0 0.0 0.00 0.00 0.00 93 1021.0
20260831072857 69 22 0.0 0.0 0.00 0.00 0.00 93 1021.1
20260831072657 69 22 0.0 0.0 0.00 0.00 0.00 93 1021.1
20260831072454 69 22 0.0 0.0 0.00 0.00 0.00 93 1021.0
20260831072251 69 22 0.0 0.0 0.00 0.00 0.00 93 1021.1
20260831072050 69 22 0.0 0.0 0.00 0.00 0.00 93 1021.1
20260831071847 69 22 0.0 0.0 0.00 0.00 0.00 93 1021.1
20260831071647 69 22 0.0 0.0 0.00 0.00 0.00 93 1021.2
20260831071447 69 22 0.0 0.0 0.00 0.00 0.00 93 1021.2
20260831071249 69 22 0.0 0.0 0.00 0.00 0.00 93 1021.2
20260831071046 69 22 0.0 0.0 0.00 0.00 0.00 93 1021.2
20260831070845 69 22 0.0 0.0 0.00 0.00 0.00 93 1021.1
20260831070647 69 22 0.0 0.0 0.00 0.00 0.00 93 1021.1
20260831070446 69 22 0.0 0.0 0.00 0.00 0.00 93 1021.2
20260831070041 69 22 0.0 0.0 0.00 0.00 0.00 93 1021.2
20260831065839 69 22 0.0 0.0 0.00 0.00 0.00 93 1021.3
20260831065437 69 22 0.0 0.0 0.00 0.00 0.00 93 1021.3
20260831065235 69 22 0.0 0.0 0.00 0.00 0.00 93 1021.2
20260831064836 69 22 0.0 0.0 0.00 0.00 0.00 93 1021.2
20260831064636 69 22 0.0 0.0 0.00 0.00 0.00 93 1021.2
20260831064433 69 22 0.0 0.0 0.00 0.00 0.00 93 1021.2
20260831064231 69 22 0.0 0.0 0.00 0.00 0.00 93 1021.2
20260831063826 69 22 0.0 0.0 0.00 0.00 0.00 93 1021.3
20260831063625 69 22 0.0 0.0 0.00 0.00 0.00 93 1021.3
20260831063425 69 22 0.0 0.0 0.00 0.00 0.00 93 1021.3
20260831063225 69 22 0.0 0.0 0.00 0.00 0.00 93 1021.3
20260831062823 69 22 0.0 0.0 0.00 0.00 0.00 93 1021.3
20260831062621 69 22 0.0 0.0 0.00 0.00 0.00 93 1021.3
20260831062420 69 22 0.0 0.0 0.00 0.00 0.00 93 1021.3
20260831062219 69 22 0.0 0.0 0.00 0.00 0.00 93 1021.3
20260831062017 69 22 0.0 0.0 0.00 0.00 0.00 93 1021.4
20260831061617 69 22 0.0 0.0 0.00 0.00 0.00 93 1021.3
20260831061416 69 22 0.0 0.0 0.00 0.00 0.00 93 1021.3
20260831061215 69 22 0.0 0.0 0.00 0.00 0.00 93 1021.3
20260831061014 70 22 0.0 0.0 0.00 0.00 0.00 93 1021.2
20260831060814 70 22 0.0 0.0 0.00 0.00 0.00 93 1021.3
20260831060608 70 22 0.0 0.0 0.00 0.00 0.00 93 1021.2
20260831060407 70 22 0.0 0.0 0.00 0.00 0.00 93 1021.3
20260831060007 70 22 0.0 0.0 0.00 0.00 0.00 93 1021.2
20260831055808 70 22 0.0 0.0 0.00 0.00 0.00 93 1021.3
20260831055407 70 22 0.0 0.0 0.00 0.00 0.00 93 1021.2
20260831055206 70 22 0.0 0.0 0.00 0.00 0.00 93 1021.2
20260831054806 70 22 0.0 0.0 0.00 0.00 0.00 92 1021.2
20260831054607 70 22 0.0 0.0 0.00 0.00 0.00 93 1021.3
20260831054403 70 22 0.0 0.0 0.00 0.00 0.00 93 1021.3
20260831054202 70 22 0.0 0.0 0.00 0.00 0.00 93 1021.3
20260831054003 70 22 0.0 0.0 0.00 0.00 0.00 93 1021.4
20260831053804 70 22 0.0 0.0 0.00 0.00 0.00 93 1021.4
20260831053602 70 22 0.0 0.0 0.00 0.00 0.00 93 1021.3
20260831053202 70 22 0.0 0.0 0.00 0.00 0.00 93 1021.3
20260831053002 70 22 0.0 0.0 0.00 0.00 0.00 93 1021.4
20260831052803 70 22 0.0 0.0 0.00 0.00 0.00 93 1021.3
20260831052401 70 22 0.0 0.0 0.00 0.00 0.00 93 1021.3
20260831052158 70 22 0.0 0.0 0.00 0.00 0.00 93 1021.3
20260831051959 70 22 0.0 0.0 0.00 0.00 0.00 93 1021.4
20260831051555 70 22 0.0 0.0 0.00 0.00 0.00 92 1021.4
20260831051357 70 22 0.0 0.0 0.00 0.00 0.00 92 1021.3
20260831051153 70 22 0.0 0.0 0.00 0.00 0.00 92 1021.4
20260831050951 70 22 0.0 0.0 0.00 0.00 0.00 92 1021.3
20260831050749 70 22 0.0 0.0 0.00 0.00 0.00 92 1021.4
20260831050546 70 22 0.0 0.0 0.00 0.00 0.00 92 1021.3
20260831050349 71 22 0.0 0.0 0.00 0.00 0.00 92 1021.4
20260831050151 71 22 0.0 0.0 0.00 0.00 0.00 92 1021.4
20260831045943 71 22 0.0 0.0 0.00 0.00 0.00 92 1021.4
20260831045741 71 22 0.0 0.0 0.00 0.00 0.00 92 1021.4
20260831045539 71 22 0.0 0.0 0.00 0.00 0.00 92 1021.4
20260831045339 71 22 0.0 0.0 0.00 0.00 0.00 92 1021.4
20260831045137 71 22 0.0 0.0 0.00 0.00 0.00 93 1021.4
20260831044936 71 22 0.0 0.0 0.00 0.00 0.00 92 1021.5
20260831044336 71 22 0.0 0.0 0.00 0.00 0.00 93 1021.4
20260831044135 71 22 0.0 0.0 0.00 0.00 0.00 93 1021.4
20260831043735 71 22 0.0 0.0 0.00 0.00 0.00 93 1021.4
20260831043531 71 22 0.0 0.0 0.00 0.00 0.00 92 1021.4
20260831043329 71 22 0.0 0.0 0.00 0.00 0.00 92 1021.4
20260831043129 71 22 0.0 0.0 0.00 0.00 0.00 92 1021.4
20260831042927 71 22 0.0 0.0 0.00 0.00 0.00 92 1021.5
20260831042325 71 22 0.0 0.0 0.00 0.00 0.00 92 1021.5
20260831042124 71 22 0.0 0.0 0.00 0.00 0.00 92 1021.5
20260831041924 71 22 0.0 0.0 0.00 0.00 0.00 92 1021.4
20260831041722 71 22 0.0 0.0 0.00 0.00 0.00 92 1021.4
20260831041122 71 22 0.0 0.0 0.00 0.00 0.00 92 1021.4
20260831040920 71 22 0.0 0.0 0.00 0.00 0.00 93 1021.4
20260831040718 71 22 0.0 0.0 0.00 0.00 0.00 93 1021.4
20260831040517 71 22 0.0 0.0 0.00 0.00 0.00 93 1021.4
20260831040319 71 22 0.0 0.0 0.00 0.00 0.00 93 1021.4
20260831040115 71 22 0.0 0.0 0.00 0.00 0.00 92 1021.5
20260831035916 71 22 0.0 0.0 0.00 0.00 0.00 92 1021.5
20260831035515 71 22 0.0 0.0 0.00 0.00 0.00 92 1021.6
20260831035312 71 22 0.0 0.0 0.00 0.00 0.00 92 1021.6
20260831035110 71 22 0.0 0.0 0.00 0.00 0.00 93 1021.6
20260831034909 71 22 0.0 0.0 0.00 0.00 0.00 93 1021.6
20260831034706 71 22 0.0 0.0 0.00 0.00 0.00 93 1021.6
20260831034507 71 22 0.0 0.0 0.00 0.00 0.00 93 1021.6
20260831034305 72 22 0.0 0.0 0.00 0.00 0.00 93 1021.7
20260831034105 72 22 0.0 0.0 0.00 0.00 0.00 93 1021.5
20260831033906 72 22 0.0 0.0 0.00 0.00 0.00 92 1021.6
20260831033705 72 22 0.0 0.0 0.00 0.00 0.00 92 1021.5
20260831033503 72 22 0.0 0.0 0.00 0.00 0.00 92 1021.5
20260831033303 72 22 0.0 0.0 0.00 0.00 0.00 92 1021.5
20260831033107 72 22 0.0 0.0 0.00 0.00 0.00 92 1021.4
20260831032904 72 22 0.0 0.0 0.00 0.00 0.00 92 1021.4
20260831032702 72 22 0.0 0.0 0.00 0.00 0.00 92 1021.5
20260831032459 72 22 0.0 0.0 0.00 0.00 0.00 92 1021.5
20260831032257 72 22 0.0 0.0 0.00 0.00 0.00 92 1021.5
20260831032057 72 22 0.0 0.0 0.00 0.00 0.00 92 1021.5
20260831031655 72 22 0.0 0.0 0.00 0.00 0.00 92 1021.5
20260831031455 72 22 0.0 0.0 0.00 0.00 0.00 92 1021.6
20260831031255 72 22 0.0 0.0 0.00 0.00 0.00 92 1021.5
20260831031055 72 22 0.0 0.0 0.00 0.00 0.00 92 1021.5
20260831030854 72 22 0.0 0.0 0.00 0.00 0.00 92 1021.6
20260831030653 72 22 0.0 0.0 0.00 0.00 0.00 92 1021.6
20260831030455 72 22 0.0 0.0 0.00 0.00 0.00 92 1021.6
20260831030253 72 22 0.0 0.0 0.00 0.00 0.00 92 1021.7
20260831030051 72 22 0.0 0.0 0.00 0.00 0.00 92 1021.6
20260831025851 72 22 0.0 0.0 0.00 0.00 0.00 92 1021.6
20260831025650 72 22 0.0 0.0 0.00 0.00 0.00 92 1021.6
20260831025450 72 22 0.0 0.0 0.00 0.00 0.00 92 1021.7
20260831025247 72 22 0.0 0.0 0.00 0.00 0.00 92 1021.6
20260831025047 72 22 0.0 0.0 0.00 0.00 0.00 92 1021.6
20260831024644 73 22 0.0 0.0 0.00 0.00 0.00 92 1021.7
20260831024445 73 22 0.0 0.0 0.00 0.00 0.00 92 1021.6
20260831024244 73 22 0.0 0.0 0.00 0.00 0.00 92 1021.6
20260831024044 73 22 0.0 0.0 0.00 0.00 0.00 92 1021.6
20260831023638 73 22 0.0 0.0 0.00 0.00 0.00 92 1021.7
20260831023235 73 22 0.0 0.0 0.00 0.00 0.00 92 1021.7
20260831023036 73 22 0.0 0.0 0.00 0.00 0.00 92 1021.7
20260831022833 73 22 0.0 0.0 0.00 0.00 0.00 92 1021.8
20260831022631 73 22 0.0 0.0 0.00 0.00 0.00 92 1021.7
20260831022227 73 22 0.0 0.0 0.00 0.00 0.00 92 1021.7
20260831021827 73 22 0.0 0.0 0.00 0.00 0.00 92 1021.7
20260831021627 73 22 0.0 0.0 0.00 0.00 0.00 92 1021.7
20260831021427 73 22 0.0 0.0 0.00 0.00 0.00 92 1021.7
20260831021227 73 22 0.0 0.0 0.00 0.00 0.00 92 1021.7
20260831021025 73 22 0.0 0.0 0.00 0.00 0.00 92 1021.7
20260831020825 73 22 0.0 0.0 0.00 0.00 0.00 91 1021.6
20260831020623 73 22 0.0 0.0 0.00 0.00 0.00 91 1021.7
20260831020425 73 22 0.0 0.0 0.00 0.00 0.00 92 1021.6
20260831020223 73 22 0.0 0.0 0.00 0.00 0.00 92 1021.6
20260831020021 74 22 0.0 0.0 0.00 0.00 0.00 91 1021.6
20260831015820 74 22 0.0 0.0 0.00 0.00 0.00 91 1021.6
20260831015619 74 22 0.0 0.0 0.00 0.00 0.00 92 1021.5
20260831015418 74 22 0.0 0.0 0.00 0.00 0.00 91 1021.6
20260831015215 74 22 0.0 0.0 0.00 0.00 0.00 91 1021.6
20260831015014 74 22 0.0 0.0 0.00 0.00 0.00 91 1021.5
20260831014409 74 22 0.0 0.0 0.00 0.00 0.00 91 1021.5
20260831014209 74 22 0.0 0.0 0.00 0.00 0.00 91 1021.4
20260831014010 74 22 0.0 0.0 0.00 0.00 0.00 91 1021.4
20260831013808 74 22 0.0 0.0 0.00 0.00 0.00 91 1021.5
20260831013609 74 22 0.0 0.0 0.00 0.00 0.00 91 1021.4
20260831013406 74 22 0.0 0.0 0.00 0.00 0.00 91 1021.4
20260831013203 74 22 0.0 0.0 0.00 0.00 0.00 91 1021.5
20260831013003 74 22 0.0 0.0 0.00 0.00 0.00 91 1021.4
20260831012809 74 22 0.0 0.0 0.00 0.00 0.00 91 1021.5
20260831012600 74 22 0.0 0.0 0.00 0.00 0.00 91 1021.6
20260831012401 74 22 0.0 0.0 0.00 0.00 0.00 91 1021.6
20260831012203 74 22 0.0 0.0 0.00 0.00 0.00 91 1021.6
20260831012002 74 22 0.0 0.0 0.00 0.00 0.00 91 1021.5
20260831011758 74 22 0.0 0.0 0.00 0.00 0.00 91 1021.4
20260831011558 74 22 0.0 0.0 0.00 0.00 0.00 91 1021.4
20260831011358 75 22 0.0 0.0 0.00 0.00 0.00 91 1021.4
20260831011155 75 22 0.0 0.0 0.00 0.00 0.00 91 1021.4
20260831010952 75 22 0.0 0.0 0.00 0.00 0.00 91 1021.4
20260831010754 75 22 0.0 0.0 0.00 0.00 0.00 91 1021.5
20260831010352 75 22 0.0 0.0 0.00 0.00 0.00 90 1021.4
20260831010151 75 22 0.0 0.0 0.00 0.00 0.00 90 1021.3
20260831010000 75 22 0.0 0.0 0.00 0.00 0.00 90 1021.3
20260831005750 75 22 0.0 0.0 0.00 0.00 0.00 90 1021.3
20260831005552 75 22 0.0 0.0 0.00 0.00 0.00 90 1021.3
20260831005352 75 22 0.0 0.0 0.00 0.00 0.00 90 1021.3
20260831005150 75 22 0.0 0.0 0.00 0.00 0.00 90 1021.3
20260831004748 75 22 0.0 0.0 0.00 0.00 0.00 90 1021.2
20260831004546 75 22 0.0 0.0 0.00 0.00 0.00 89 1021.3
20260831003747 76 22 0.0 0.0 0.00 0.00 0.00 89 1021.3
20260831003548 76 22 0.0 0.0 0.00 0.00 0.00 89 1021.3
20260831003146 76 22 0.0 0.0 0.00 0.00 0.00 89 1021.2
20260831002741 76 22 0.0 1.0 0.00 0.00 0.00 88 1021.3
20260831002539 76 22 0.0 1.0 0.00 0.00 0.00 88 1021.3
20260831001936 76 22 0.0 0.0 0.00 0.00 0.00 88 1021.2
20260831001733 76 22 0.0 0.0 0.00 0.00 0.00 88 1021.1
20260831001531 76 22 0.0 0.0 0.00 0.00 0.00 88 1021.1
20260831001129 77 22 0.0 0.0 0.00 0.00 0.00 87 1021.0
20260831000928 77 22 0.0 0.0 0.00 0.00 0.00 87 1021.0
20260831000524 77 22 0.0 0.0 0.00 0.00 0.00 87 1021.1
20260831000325 77 22 0.0 0.0 0.00 0.00 0.00 87 1021.1
20260831000125 77 22 0.0 0.0 0.00 0.00 0.00 87 1021.1
20260830235726 77 22 0.0 0.0 0.00 0.00 0.00 87 1021.2
20260830235525 77 22 0.0 0.0 0.00 0.00 0.00 87 1021.2
20260830235322 77 22 0.0 0.0 0.00 0.00 0.00 87 1021.2
20260830235124 78 22 0.0 0.0 0.00 0.00 0.00 86 1021.1
20260830234922 78 22 0.0 0.0 0.00 0.00 0.00 86 1021.1
20260830234721 78 22 0.0 0.0 0.00 0.00 0.00 86 1021.1
20260830234519 78 22 0.0 0.0 0.00 0.00 0.00 86 1021.0
20260830234317 78 22 0.0 0.0 0.00 0.00 0.00 86 1021.1
20260830234114 78 22 0.0 0.0 0.00 0.00 0.00 86 1021.1
20260830233915 78 22 0.0 0.0 0.00 0.00 0.00 86 1021.1
20260830233715 78 22 0.0 0.0 0.00 0.00 0.00 86 1021.0
20260830233309 78 22 0.0 0.0 0.00 0.00 0.00 85 1021.1
20260830233107 78 22 0.0 0.0 0.00 0.00 0.00 85 1021.1
20260830232908 78 22 0.0 0.0 0.00 0.00 0.00 85 1021.1
20260830232705 79 22 0.0 0.0 0.00 0.00 0.00 85 1021.1
20260830232504 79 22 0.0 0.0 0.00 0.00 0.00 85 1021.2
20260830232106 79 22 0.0 0.0 0.00 0.00 0.00 85 1021.3
20260830231906 79 22 0.0 0.0 0.00 0.00 0.00 85 1021.3
20260830231304 79 22 0.0 0.0 0.00 0.00 0.00 84 1021.2
20260830231105 79 22 0.0 0.0 0.00 0.00 0.00 84 1021.3
20260830230900 79 22 0.0 0.0 0.00 0.00 0.00 84 1021.4
20260830230700 79 22 0.0 0.0 0.00 0.00 0.00 84 1021.4
20260830230501 79 22 0.0 0.0 0.00 0.00 0.00 84 1021.3
20260830230302 80 22 0.0 0.0 0.00 0.00 0.00 84 1021.4
20260830225901 80 22 0.0 0.0 0.00 0.00 0.00 84 1021.3
20260830225501 80 22 0.0 0.0 0.00 0.00 0.00 84 1021.4
20260830225259 80 22 0.0 0.0 0.00 0.00 0.00 84 1021.4
20260830224859 80 22 0.0 0.0 0.00 0.00 0.00 83 1021.4
20260830224700 80 22 0.0 0.0 0.00 0.00 0.00 83 1021.4
20260830224458 80 22 0.0 0.0 0.00 0.00 0.00 83 1021.4
20260830224259 80 22 0.0 0.0 0.00 0.00 0.00 82 1021.3
20260830224058 80 22 0.0 0.0 0.00 0.00 0.00 82 1021.3
20260830223858 80 22 0.0 0.0 0.00 0.00 0.00 82 1021.3
20260830223700 80 22 0.0 0.0 0.00 0.00 0.00 83 1021.3
20260830223458 80 22 0.0 0.0 0.00 0.00 0.00 83 1021.3
20260830223259 81 22 0.0 0.0 0.00 0.00 0.00 82 1021.3
20260830222700 81 22 0.0 0.0 0.00 0.00 0.00 82 1021.3
20260830222459 81 22 0.0 2.0 0.00 0.00 0.00 83 1021.4
20260830222258 81 22 0.0 2.0 0.00 0.00 0.00 83 1021.3
20260830222059 81 22 0.0 2.0 0.00 0.00 0.00 83 1021.3
20260830221859 81 22 0.0 2.0 0.00 0.00 0.00 82 1021.3
20260830221700 81 22 0.0 2.0 0.00 0.00 0.00 82 1021.3
20260830221501 81 22 0.0 0.0 0.00 0.00 0.00 82 1021.3
20260830221100 82 22 0.0 0.0 0.00 0.00 0.00 82 1021.3
20260830220858 82 22 0.0 0.0 0.00 0.00 0.00 82 1021.3
20260830220458 82 22 0.0 0.0 0.00 0.00 0.00 81 1021.2
20260830220258 82 22 0.0 0.0 0.00 0.00 0.00 81 1021.2
20260830215859 82 22 0.0 0.0 0.00 0.00 0.00 81 1021.1
20260830215701 82 22 0.0 0.0 0.00 0.00 0.00 81 1021.2
20260830215259 82 22 0.0 1.0 0.00 0.00 0.00 80 1021.2
20260830215100 82 22 0.0 1.0 0.00 0.00 0.00 81 1021.1
20260830214700 82 22 0.0 1.0 0.00 0.00 0.00 80 1021.0
20260830214459 82 22 0.0 1.0 0.00 0.00 0.00 77 1020.9
20260830214059 82 22 0.0 1.0 0.00 0.00 0.00 76 1020.9
20260830213658 82 22 0.0 1.0 0.00 0.00 0.00 76 1020.9
20260830213459 82 22 0.0 1.0 0.00 0.00 0.00 80 1021.0
20260830213059 82 22 0.0 1.0 0.00 0.00 0.00 79 1021.1
20260830212658 82 22 0.0 1.0 0.00 0.00 0.00 79 1021.1
20260830212500 82 22 0.0 1.0 0.00 0.00 0.00 77 1021.1
20260830212300 82 22 0.0 1.0 0.00 0.00 0.00 77 1021.2
20260830212058 82 22 0.0 1.0 0.00 0.00 0.00 77 1021.2
20260830211859 82 22 0.0 1.0 0.00 0.00 0.00 78 1021.1
20260830211659 82 22 0.0 1.0 0.00 0.00 0.00 79 1021.2
20260830211500 82 22 0.0 1.0 0.00 0.00 0.00 80 1021.2
20260830211259 82 22 0.0 1.0 0.00 0.00 0.00 79 1021.1
20260830211059 82 22 0.0 1.0 0.00 0.00 0.00 80 1021.1
20260830210858 82 22 0.0 1.0 0.00 0.00 0.00 76 1021.1
20260830210658 82 22 0.0 1.0 0.00 0.00 0.00 76 1021.0
20260830210458 82 22 0.0 1.0 0.00 0.00 0.00 76 1021.1
20260830210059 82 22 0.0 1.0 0.00 0.00 0.00 77 1021.2
20260830205900 82 22 0.0 1.0 0.00 0.00 0.00 77 1021.2
20260830205700 82 22 0.0 0.0 0.00 0.00 0.00 78 1021.2
20260830205458 82 22 0.0 0.0 0.00 0.00 0.00 79 1021.3
20260830205258 82 22 0.0 0.0 0.00 0.00 0.00 78 1021.3
20260830205101 82 22 0.0 0.0 0.00 0.00 0.00 76 1021.3
20260830204903 82 22 0.0 0.0 0.00 0.00 0.00 77 1021.3
20260830204659 82 22 0.0 0.0 0.00 0.00 0.00 80 1021.4
20260830204459 82 22 0.0 0.0 0.00 0.00 0.00 75 1021.3
20260830204058 82 22 0.0 0.0 0.00 0.00 0.00 80 1021.4
20260830203859 82 22 0.0 0.0 0.00 0.00 0.00 82 1021.4
20260830203659 82 22 0.0 0.0 0.00 0.00 0.00 77 1021.4
20260830203259 82 22 0.0 0.0 0.00 0.00 0.00 78 1021.3
20260830203058 82 22 0.0 0.0 0.00 0.00 0.00 78 1021.4
20260830202659 82 22 0.0 0.0 0.00 0.00 0.00 80 1021.4
20260830202259 82 22 0.0 0.0 0.00 0.00 0.00 79 1021.5
20260830201858 82 22 0.0 0.0 0.00 0.00 0.00 76 1021.5
20260830201700 82 22 0.0 0.0 0.00 0.00 0.00 77 1021.6
20260830201459 82 22 0.0 0.0 0.00 0.00 0.00 77 1021.6
20260830201258 82 22 0.0 0.0 0.00 0.00 0.00 77 1021.7
20260830201059 82 22 0.0 1.0 0.00 0.00 0.00 77 1021.6
20260830200858 82 22 0.0 2.0 0.00 0.00 0.00 77 1021.7
20260830200659 82 22 0.0 2.0 0.00 0.00 0.00 77 1021.7
20260830200259 82 22 0.0 2.0 0.00 0.00 0.00 75 1021.7
20260830200058 82 22 0.0 2.0 0.00 0.00 0.00 76 1021.7
20260830195659 82 20 0.0 0.0 0.00 0.00 0.00 80 1021.8
20260830195459 82 20 0.0 0.0 0.00 0.00 0.00 79 1021.8
20260830195258 82 18 0.0 0.0 0.00 0.00 0.00 79 1021.9
20260830194856 83 18 0.0 0.0 0.00 0.00 0.00 79 1021.9
20260830194657 83 18 0.0 0.0 0.00 0.00 0.00 79 1021.9
20260830194457 83 18 0.0 0.0 0.00 0.00 0.00 78 1021.9
20260830194252 83 18 0.0 0.0 0.00 0.00 0.00 78 1022.0
20260830194051 83 18 0.0 0.0 0.00 0.00 0.00 78 1022.0
20260830193849 83 18 0.0 0.0 0.00 0.00 0.00 79 1022.0
20260830193649 83 18 0.0 0.0 0.00 0.00 0.00 78 1022.0
20260830193448 83 18 0.0 0.0 0.00 0.00 0.00 78 1022.0
20260830193250 83 18 0.0 0.0 0.00 0.00 0.00 77 1022.0
20260830193048 83 18 0.0 0.0 0.00 0.00 0.00 76 1022.1
20260830192845 83 18 0.0 0.0 0.00 0.00 0.00 75 1022.1
20260830192644 83 18 0.0 0.0 0.00 0.00 0.00 73 1022.1
20260830192441 83 18 0.0 0.0 0.00 0.00 0.00 73 1022.1
20260830192240 83 18 0.0 0.0 0.00 0.00 0.00 73 1022.1
20260830191838 83 18 0.0 2.0 0.00 0.00 0.00 73 1022.1
20260830191637 83 18 0.0 2.0 0.00 0.00 0.00 73 1022.1
20260830191442 83 18 0.0 2.0 0.00 0.00 0.00 73 1022.2
20260830191236 83 18 0.0 2.0 0.00 0.00 0.00 73 1022.2
20260830191034 83 18 1.0 3.0 0.00 0.00 0.00 73 1022.2
20260830190835 83 18 1.0 3.0 0.00 0.00 0.00 73 1022.2
20260830190636 83 18 1.0 3.0 0.00 0.00 0.00 72 1022.2
20260830190432 83 18 1.0 3.0 0.00 0.00 0.00 72 1022.2
20260830190231 83 18 1.0 3.0 0.00 0.00 0.00 71 1022.2
20260830185831 83 18 1.0 3.0 0.00 0.00 0.00 76 1022.3
20260830185630 83 18 1.0 3.0 0.00 0.00 0.00 76 1022.3
20260830185428 83 81 0.0 3.0 0.00 0.00 0.00 73 1022.3
20260830185228 82 82 0.0 3.0 0.00 0.00 0.00 70 1022.3
20260830185026 82 88 0.0 2.0 0.00 0.00 0.00 73 1022.3
20260830184825 82 88 0.0 2.0 0.00 0.00 0.00 73 1022.4
20260830184624 82 88 0.0 2.0 0.00 0.00 0.00 73 1022.4
20260830184425 82 88 0.0 2.0 0.00 0.00 0.00 73 1022.4
20260830184224 82 88 0.0 2.0 0.00 0.00 0.00 74 1022.5
20260830184022 82 88 0.0 2.0 0.00 0.00 0.00 73 1022.6
20260830183822 82 88 0.0 2.0 0.00 0.00 0.00 75 1022.6
20260830183622 82 88 0.0 2.0 0.00 0.00 0.00 78 1022.7
20260830183418 82 88 0.0 2.0 0.00 0.00 0.00 76 1022.7
20260830183219 82 88 0.0 2.0 0.00 0.00 0.00 74 1022.7
20260830183016 82 87 0.0 0.0 0.00 0.00 0.00 75 1022.9
20260830182816 82 86 0.0 0.0 0.00 0.00 0.00 76 1022.9
20260830182618 82 87 0.0 0.0 0.00 0.00 0.00 75 1022.9
20260830182417 81 86 0.0 0.0 0.00 0.00 0.00 75 1022.9
20260830182215 81 86 0.0 0.0 0.00 0.00 0.00 75 1022.9
20260830181810 81 86 0.0 0.0 0.00 0.00 0.00 75 1023.0
20260830181611 81 86 0.0 0.0 0.00 0.00 0.00 77 1023.0
20260830181411 81 86 0.0 0.0 0.00 0.00 0.00 76 1023.1
20260830181209 81 86 0.0 1.0 0.00 0.00 0.00 76 1023.1
20260830181006 81 86 0.0 2.0 0.00 0.00 0.00 75 1023.1
20260830180804 81 86 0.0 2.0 0.00 0.00 0.00 76 1023.2